Weather History for Marathon, FL

Change the Weather History Date:

Wednesday, August 7, 2013

  Actual Average Record
Temperature  
Mean Temperature 86 °F 86 °F  
Max Temperature 92 °F 92 °F 96 °F (1997)
Min Temperature 80 °F 80 °F 75 °F (2004)
Degree Days  
Heating Degree Days 0 0  
Month to date heating degree days 0 0  
Since 1 June heating degree days 0 0  
Since 1 July heating degree days 0 0  
Cooling Degree Days 21 21  
Month to date cooling degree days 154 146  
Year to date cooling degree days 3224 2903  
Since 1 June cooling degree days 1394 1360  
Growing Degree Days 36 (Base 50)    
Moisture  
Dew Point 74 °F    
Average Humidity 68    
Maximum Humidity 79    
Minimum Humidity 56    
Precipitation  
Precipitation 0.02 in 0.21 in 0.51 in (2005)
Month to date precipitation 0.37 1.42  
Year to date precipitation 37.42 23.25  
Snow  
Snow 0.00 in - - ()
Month to date snowfall 0.0  
Since 1 June snowfall 0.0  
Since 1 July snowfall 0.0  
Snow Depth 0.00 in    
Sea Level Pressure  
Sea Level Pressure 29.93 in    
Wind  
Wind Speed 5 mph (SE)    
Max Wind Speed 14 mph    
Max Gust Speed 22 mph    
Visibility 10 miles    
Events      
T = Trace of Precipitation, MM = Missing Value Source: NWS Daily Summary

Daily Weather History Graph

Daily Weather History Graph

Search for Another Location

Airport:

Trip Planner

Search our weather history database for the weather conditions in past years. The results will help you decide how hot, cold, wet, or windy it might be!

Date:

Astronomy

Aug. 07, 2013 Rise Set
Actual Time 6:55 AM EDT 8:04 PM EDT
Civil Twilight 6:30 AM EDT 8:28 PM EDT
Nautical Twilight 6:02 AM EDT 8:57 PM EDT
Astronomical Twilight 5:32 AM EDT 9:26 PM EDT
Moon 7:30 AM EDT (8/7) 8:25 PM EDT (8/7)
Length of Visible Light 13h 57m
Length of Day
13h 09m
New Moon, 1% of the Moon is Illuminated
Aug 7
New Moon
Aug 14
First Quarter
Aug 20
Full
Aug 28
Last Quarter
Sep 5
New

Hourly Weather History & Observations

Time (EDT) Temp. Heat Index Dew Point Humidity Pressure Visibility Wind Dir Wind Speed Gust Speed Precip Events Conditions
12:53 AM 82.9 °F 89.4 °F 73.9 °F 74% 29.95 in 10.0 mi Calm Calm - N/A   Clear
1:53 AM 81.0 °F 86.2 °F 73.9 °F 79% 29.93 in 10.0 mi Calm Calm - N/A   Clear
2:53 AM 82.0 °F 87.9 °F 73.9 °F 76% 29.92 in 10.0 mi East 3.5 mph - N/A   Clear
3:53 AM 81.0 °F 86.2 °F 73.9 °F 79% 29.91 in 10.0 mi Calm Calm - N/A   Clear
4:35 AM 82.4 °F 88.2 °F 73.4 °F 74% 29.91 in 10.0 mi Calm Calm - N/A   Mostly Cloudy
4:53 AM 82.0 °F 87.9 °F 73.9 °F 76% 29.91 in 10.0 mi North 4.6 mph - N/A   Mostly Cloudy
5:10 AM 82.4 °F 88.2 °F 73.4 °F 74% 29.91 in 10.0 mi North 3.5 mph - N/A   Mostly Cloudy
5:53 AM 81.0 °F 85.8 °F 73.0 °F 77% 29.91 in 10.0 mi Calm Calm - N/A   Partly Cloudy
6:53 AM 84.0 °F 91.9 °F 75.0 °F 74% 29.92 in 10.0 mi Variable 3.5 mph - N/A   Clear
7:53 AM 84.9 °F 92.1 °F 73.9 °F 69% 29.94 in 10.0 mi SE 4.6 mph - N/A   Clear
8:53 AM 84.9 °F 92.1 °F 73.9 °F 69% 29.95 in 10.0 mi SSE 4.6 mph - N/A   Clear
9:53 AM 87.1 °F 96.3 °F 75.0 °F 67% 29.96 in 10.0 mi Variable 4.6 mph - N/A   Scattered Clouds
10:51 AM 87.8 °F 97.6 °F 75.2 °F 66% 29.96 in 10.0 mi South 5.8 mph - N/A   Mostly Cloudy
10:53 AM 87.1 °F 96.3 °F 75.0 °F 67% 29.96 in 10.0 mi South 4.6 mph - N/A   Mostly Cloudy
11:12 AM 89.6 °F 99.8 °F 75.2 °F 62% 29.97 in 10.0 mi South 6.9 mph - N/A   Mostly Cloudy
11:53 AM 89.1 °F 98.0 °F 73.9 °F 61% 29.96 in 10.0 mi South 6.9 mph - N/A   Clear
12:53 PM 90.0 °F 100.2 °F 75.0 °F 61% 29.96 in 10.0 mi SSE 8.1 mph - N/A   Clear
1:53 PM 91.0 °F 100.4 °F 73.9 °F 57% 29.95 in 10.0 mi SSE 6.9 mph - N/A   Clear
2:53 PM 89.1 °F 99.1 °F 75.0 °F 63% 29.94 in 10.0 mi SE 8.1 mph - N/A   Partly Cloudy
3:53 PM 84.9 °F 93.3 °F 75.0 °F 72% 29.92 in 10.0 mi Calm Calm - 0.02 in   Partly Cloudy
4:53 PM 86.0 °F 95.1 °F 75.0 °F 70% 29.91 in 10.0 mi Variable 4.6 mph - N/A   Clear
5:53 PM 86.0 °F 93.0 °F 73.0 °F 65% 29.91 in 10.0 mi East 5.8 mph - N/A   Clear
6:53 PM 86.0 °F 93.0 °F 73.0 °F 65% 29.91 in 10.0 mi East 5.8 mph - N/A   Clear
7:53 PM 84.9 °F 91.4 °F 73.0 °F 67% 29.91 in 10.0 mi East 5.8 mph - N/A   Clear
8:53 PM 84.9 °F 90.7 °F 72.0 °F 65% 29.94 in 10.0 mi East 6.9 mph - N/A   Partly Cloudy
9:53 PM 84.9 °F 90.7 °F 72.0 °F 65% 29.94 in 10.0 mi East 9.2 mph - N/A   Clear
10:53 PM 84.9 °F 90.7 °F 72.0 °F 65% 29.96 in 10.0 mi ESE 9.2 mph 18.4 mph N/A   Clear
11:53 PM 84.9 °F 91.4 °F 73.0 °F 67% 29.96 in 10.0 mi ESE 9.2 mph 18.4 mph N/A   Partly Cloudy